Location: Unspecified
(0.0000°N, 0.0000°E)
Time: 15:03:43
(UTC+00:00)

CZ-3C DEB - Pass Details

Date: 23 February 2026
Orbit: 521 x 35552 km, 20.3° (Epoch: 6 July)

Event Time Altitude Azimuth Distance (km) Brightness Sun altitude
Rises 03:37:06 0° 248° (WSW) 15,823 ? -38.4°
Reaches altitude 10° 03:51:57 10° 247° (WSW) 17,646 ? -34.8°
Maximum altitude 09:48:33 48° 331° (NNW) 5,591 ? 52.7°
Drops below altitude 10° 10:02:13 10° 47° (NE) 4,283 ? 56.0°
Sets 10:04:20 0° 55° (NE) 4,684 ? 56.5°
